Regional Weather Roundup
Issued by NWS

Home | Current Version | Previous Version | Graphics & Text | Print | Product List | Glossary On
Versions: 1 2 3 4 5 6 7 8 9 10 11 12 13 14 15 16 17 18 19 20 21 22 23 24 25 26 27 28 29 30 31 32 33 34 35 36 37 38 39 40 41 42 43 44 45 46 47 48 49 50
000
ASUS45 KCYS 271710
RWRWY

WYOMING REGIONAL WEATHER ROUNDUP
NATIONAL WEATHER SERVICE CHEYENNE WY
1100 AM MDT FRI MAR 27 2015

NOTE:  "FAIR" INDICATES FEW OR NO CLOUDS BELOW 12,000 FEET
WITH NO SIGNIFICANT WEATHER AND/OR OBSTRUCTIONS TO VISIBILITY.

WYZ001-271800-
YELLOWSTONE NATIONAL PARK

CITY           SKY/WX    TMP DP  RH WIND       PRES   REMARKS
LK YELLOWSTONE   N/A     38  30  73 VRB6      30.36S WCI  33
W YELLOWSTONE  NOT AVBL

$$
WYZ002>013-054>058-071-098>099-271800-
NORTHERN WYOMING

CITY           SKY/WX    TMP DP  RH WIND       PRES   REMARKS
JACKSON        SUNNY     39  32  75 CALM      30.35S
CODY           FAIR      61  28  29 W20G29    30.15S
GREYBULL       FAIR      55  34  45 E6        30.14F
WORLAND        FAIR      57  33  40 SW3       30.16S
SHERIDAN       FAIR      65  33  30 N20G25    30.08S
BUFFALO        FAIR      58  33  39 VRB3      30.12S
GILLETTE       FAIR      59  37  44 NW23G32   30.06F
HULETT         FAIR      57  37  47 W13G20    30.06F
NEWCASTLE      FAIR      54  36  50 NW21G26   30.08F

$$
WYZ014>020-022>026-101>103-271800-
CENTRAL WYOMING

CITY           SKY/WX    TMP DP  RH WIND       PRES   REMARKS
BIG PINEY      FAIR      55  30  38 VRB6      30.32F
PINEDALE       FAIR      50  32  50 NW16      30.33R
DUBOIS         FAIR      52  28  40 NW12G23   30.29S
LANDER         FAIR      59  28  30 VRB3      30.20S
RIVERTON       FAIR      56  32  40 CALM      30.21S
CASPER         FAIR      60  30  32 W24G32    30.16F
DOUGLAS        FAIR      60  32  34 NW23G31   30.13F

$$
WYZ021-027>030-104>119-271800-
SOUTHERN WYOMING

CITY           SKY/WX    TMP DP  RH WIND       PRES   REMARKS
EVANSTON       FAIR      51  29  42 W8        30.38R
KEMMERER       FAIR      48  32  53 W10       30.36S
FORT BRIDGER   FAIR      56  31  37 W14       30.39S
ROCK SPRINGS   FAIR      52  30  43 W13       30.32F
DIXON          FAIR      54  32  43 SW13      30.35F
RAWLINS        FAIR      51  30  44 W17       30.28F
SARATOGA       FAIR      52  30  43 W15G24    30.30F
LARAMIE        FAIR      52  28  39 NW20G28   30.23S
CHEYENNE       FAIR      56  28  34 NW20G29   30.18F
TORRINGTON     FAIR      60  34  37 NW15      30.11F
PINE BLUFFS      N/A     59  32  36 NW21G28   30.15F

$$


USA.gov is the U.S. government's official web portal to all federal, state and local government web resources and services.